owner,sensor,date,latitude,longitude,vertical_datum,direction_of_sea_water_velocity,sea_water_speed,upward_sea_water_velocity,qcFlag 
TABS,ioos:station:TABS:H:1,2006-08-24T00:00:00Z,27.8674,-96.5433,2.0,75.75333798,2.641230774,-99999.0,'11133222,11111222,99999999' 
TABS,ioos:station:TABS:H:1,2006-08-24T00:30:00Z,27.8674,-96.5433,2.0,338.3442721,1.463283978,-99999.0,'11133222,11111222,99999999' 
TABS,ioos:station:TABS:H:1,2006-08-24T01:00:00Z,27.8674,-96.5433,2.0,37.0524085,4.398022283,-99999.0,'11133222,11111222,99999999' 
TABS,ioos:station:TABS:H:1,2006-08-24T01:30:00Z,27.8674,-96.5433,2.0,326.9018941,3.222979988,-99999.0,'11133222,11111222,99999999' 
TABS,ioos:station:TABS:H:1,2006-08-24T02:00:00Z,27.8674,-96.5433,2.0,173.5299847,2.928651567,-99999.0,'11133222,11111222,99999999' 
TABS,ioos:station:TABS:H:1,2006-08-24T02:30:00Z,27.8674,-96.5433,2.0,5.312588676,6.156443779,-99999.0,'11133222,11111222,99999999' 
TABS,ioos:station:TABS:H:1,2006-08-24T03:00:00Z,27.8674,-96.5433,2.0,186.609718,4.69118322,-99999.0,'11133222,11111222,99999999' 
TABS,ioos:station:TABS:H:1,2006-08-24T03:30:00Z,27.8674,-96.5433,2.0,206.6521861,5.862977059,-99999.0,'11133222,11111222,99999999' 
TABS,ioos:station:TABS:H:1,2006-08-24T04:00:00Z,27.8674,-96.5433,2.0,234.7142753,5.280018939,-99999.0,'11133222,11111222,99999999' 
TABS,ioos:station:TABS:H:1,2006-08-24T04:30:00Z,27.8674,-96.5433,2.0,241.735641,10.55888252,-99999.0,'11111222,11111222,99999999' 
TABS,ioos:station:TABS:H:1,2006-08-24T05:00:00Z,27.8674,-96.5433,2.0,8.004920597,3.231485726,-99999.0,'11133222,11111222,99999999' 
TABS,ioos:station:TABS:H:1,2006-08-24T05:30:00Z,27.8674,-96.5433,2.0,287.2378173,9.381364506,-99999.0,'11133222,11111222,99999999' 
TABS,ioos:station:TABS:H:1,2006-08-24T06:00:00Z,27.8674,-96.5433,2.0,307.4136247,6.748303491,-99999.0,'11133222,11111222,99999999' 
TABS,ioos:station:TABS:H:1,2006-08-24T06:30:00Z,27.8674,-96.5433,2.0,33.19962207,6.154624278,-99999.0,'11133222,11111222,99999999' 
TABS,ioos:station:TABS:H:1,2006-08-24T07:00:00Z,27.8674,-96.5433,2.0,289.9065566,3.818127813,-99999.0,'11133222,11111222,99999999' 
TABS,ioos:station:TABS:H:1,2006-08-24T07:30:00Z,27.8674,-96.5433,2.0,254.8397242,7.915459557,-99999.0,'11133222,11111222,99999999' 
TABS,ioos:station:TABS:H:1,2006-08-24T08:00:00Z,27.8674,-96.5433,2.0,103.3364168,6.15601332,-99999.0,'11133222,11111222,99999999' 
TABS,ioos:station:TABS:H:1,2006-08-24T08:30:00Z,27.8674,-96.5433,2.0,28.00500236,4.983532883,-99999.0,'11133222,11111222,99999999' 
TABS,ioos:station:TABS:H:1,2006-08-24T09:00:00Z,27.8674,-96.5433,2.0,327.5290941,9.387651463,-99999.0,'11133222,11111222,99999999' 
TABS,ioos:station:TABS:H:1,2006-08-24T09:30:00Z,27.8674,-96.5433,2.0,176.8479262,9.0937561,-99999.0,'11133222,11111222,99999999' 
TABS,ioos:station:TABS:H:1,2006-08-24T10:00:00Z,27.8674,-96.5433,2.0,252.2044518,8.212947096,-99999.0,'11133222,11111222,99999999' 
TABS,ioos:station:TABS:H:1,2006-08-24T10:30:00Z,27.8674,-96.5433,2.0,247.7257125,9.682484185,-99999.0,'11133222,11111222,99999999' 
TABS,ioos:station:TABS:H:1,2006-08-24T11:00:00Z,27.8674,-96.5433,2.0,3.377093915,9.676802158,-99999.0,'11133222,11111222,99999999' 
TABS,ioos:station:TABS:H:1,2006-08-24T11:30:00Z,27.8674,-96.5433,2.0,219.7825357,6.454339625,-99999.0,'11133222,11111222,99999999' 
TABS,ioos:station:TABS:H:1,2006-08-24T12:00:00Z,27.8674,-96.5433,2.0,56.68944707,2.931654823,-99999.0,'11133222,11111222,99999999' 
TABS,ioos:station:TABS:H:1,2006-08-24T12:30:00Z,27.8674,-96.5433,2.0,325.7079771,7.916009095,-99999.0,'11133222,11111222,99999999' 
TABS,ioos:station:TABS:H:1,2006-08-24T13:00:00Z,27.8674,-96.5433,2.0,46.28189374,8.218637357,-99999.0,'11133222,11111222,99999999' 
TABS,ioos:station:TABS:H:1,2006-08-24T13:30:00Z,27.8674,-96.5433,2.0,66.44524073,10.55986742,-99999.0,'11111222,11111222,99999999' 
TABS,ioos:station:TABS:H:1,2006-08-24T14:00:00Z,27.8674,-96.5433,2.0,139.930126,15.55024437,-99999.0,'11111222,11111222,99999999' 
TABS,ioos:station:TABS:H:1,2006-08-24T14:30:00Z,27.8674,-96.5433,2.0,197.7636671,17.01105817,-99999.0,'11111222,11111222,99999999' 
TABS,ioos:station:TABS:H:1,2006-08-24T15:00:00Z,27.8674,-96.5433,2.0,36.5927464,18.18421293,-99999.0,'11111222,11111222,99999999' 
TABS,ioos:station:TABS:H:1,2006-08-24T15:30:00Z,27.8674,-96.5433,2.0,356.2829448,14.9614772,-99999.0,'11111222,11111222,99999999' 
TABS,ioos:station:TABS:H:1,2006-08-24T16:00:00Z,27.8674,-96.5433,2.0,154.8394959,14.95931817,-99999.0,'11111222,11111222,99999999' 
TABS,ioos:station:TABS:H:1,2006-08-24T16:30:00Z,27.8674,-96.5433,2.0,235.4192567,16.42110837,-99999.0,'11111222,11111222,99999999' 
TABS,ioos:station:TABS:H:1,2006-08-24T17:00:00Z,27.8674,-96.5433,2.0,157.4581434,14.66001364,-99999.0,'11111222,11111222,99999999' 
TABS,ioos:station:TABS:H:1,2006-08-24T17:30:00Z,27.8674,-96.5433,2.0,338.7583259,17.3057736,-99999.0,'11111222,11111222,99999999' 
TABS,ioos:station:TABS:H:1,2006-08-24T18:00:00Z,27.8674,-96.5433,2.0,238.0383104,13.79057649,-99999.0,'11111222,11111222,99999999' 
TABS,ioos:station:TABS:H:1,2006-08-24T18:30:00Z,27.8674,-96.5433,2.0,301.1130019,13.19857568,-99999.0,'11111222,11111222,99999999' 
TABS,ioos:station:TABS:H:1,2006-08-24T19:00:00Z,27.8674,-96.5433,2.0,160.0701242,14.66847299,-99999.0,'11111222,11111222,99999999' 
TABS,ioos:station:TABS:H:1,2006-08-24T19:30:00Z,27.8674,-96.5433,2.0,298.4739638,14.36799916,-99999.0,'11111222,11111222,99999999' 
TABS,ioos:station:TABS:H:1,2006-08-24T20:00:00Z,27.8674,-96.5433,2.0,180.2252139,15.25011803,-99999.0,'11111222,11111222,99999999' 
TABS,ioos:station:TABS:H:1,2006-08-24T20:30:00Z,27.8674,-96.5433,2.0,119.7813902,15.54279576,-99999.0,'11111222,11111222,99999999' 
TABS,ioos:station:TABS:H:1,2006-08-24T21:00:00Z,27.8674,-96.5433,2.0,353.6992664,16.12742385,-99999.0,'11111222,11111222,99999999' 
TABS,ioos:station:TABS:H:1,2006-08-24T21:30:00Z,27.8674,-96.5433,2.0,252.9317176,9.676161429,-99999.0,'11133222,11111222,99999999' 
TABS,ioos:station:TABS:H:1,2006-08-24T22:00:00Z,27.8674,-96.5433,2.0,147.0124101,7.916167002,-99999.0,'11133222,11111222,99999999' 
TABS,ioos:station:TABS:H:1,2006-08-24T22:30:00Z,27.8674,-96.5433,2.0,26.15951817,8.211047436,-99999.0,'11133222,11111222,99999999' 
TABS,ioos:station:TABS:H:1,2006-08-24T23:00:00Z,27.8674,-96.5433,2.0,41.04813602,8.207813351,-99999.0,'11133222,11111222,99999999' 
TABS,ioos:station:TABS:H:1,2006-08-24T23:30:00Z,27.8674,-96.5433,2.0,192.5442632,7.91904666,-99999.0,'11133222,11111222,99999999' 
TABS,ioos:station:TABS:H:1,2006-08-25T00:00:00Z,27.8674,-96.5433,2.0,62.17596868,7.327127677,-99999.0,'11133222,11111222,99999999' 
TABS,ioos:station:TABS:H:1,2006-08-25T00:30:00Z,27.8674,-96.5433,2.0,59.02036053,6.158514431,-99999.0,'11133222,11111222,99999999' 
TABS,ioos:station:TABS:H:1,2006-08-25T01:00:00Z,27.8674,-96.5433,2.0,37.52108074,8.800568163,-99999.0,'11133222,11111222,99999999' 
TABS,ioos:station:TABS:H:1,2006-08-25T01:30:00Z,27.8674,-96.5433,2.0,12.58675303,9.682695906,-99999.0,'11133222,11111222,99999999' 
TABS,ioos:station:TABS:H:1,2006-08-25T02:00:00Z,27.8674,-96.5433,2.0,18.21204351,10.55892513,-99999.0,'11111222,11111222,99999999' 
TABS,ioos:station:TABS:H:1,2006-08-25T02:30:00Z,27.8674,-96.5433,2.0,351.5512307,7.62272917,-99999.0,'11133222,11111222,99999999' 
TABS,ioos:station:TABS:H:1,2006-08-25T03:00:00Z,27.8674,-96.5433,2.0,26.31229101,11.14467137,-99999.0,'11111222,11111222,99999999' 
TABS,ioos:station:TABS:H:1,2006-08-25T03:30:00Z,27.8674,-96.5433,2.0,25.58565592,9.679116695,-99999.0,'11133222,11111222,99999999' 
TABS,ioos:station:TABS:H:1,2006-08-25T04:00:00Z,27.8674,-96.5433,2.0,31.18373793,9.386186659,-99999.0,'11133222,11111222,99999999' 
TABS,ioos:station:TABS:H:1,2006-08-25T04:30:00Z,27.8674,-96.5433,2.0,39.29934587,12.31506801,-99999.0,'11111222,11111222,99999999' 
TABS,ioos:station:TABS:H:1,2006-08-25T05:00:00Z,27.8674,-96.5433,2.0,45.62040786,14.36925189,-99999.0,'11111222,11111222,99999999' 
TABS,ioos:station:TABS:H:1,2006-08-25T05:30:00Z,27.8674,-96.5433,2.0,19.62456997,19.65146559,-99999.0,'11111222,11111222,99999999' 
TABS,ioos:station:TABS:H:1,2006-08-25T06:00:00Z,27.8674,-96.5433,2.0,17.17607391,15.543185,-99999.0,'11111222,11111222,99999999' 
TABS,ioos:station:TABS:H:1,2006-08-25T06:30:00Z,27.8674,-96.5433,2.0,39.9870032,11.73335843,-99999.0,'11111222,11111222,99999999' 
TABS,ioos:station:TABS:H:1,2006-08-25T07:00:00Z,27.8674,-96.5433,2.0,39.66062385,14.66539123,-99999.0,'11111222,11111222,99999999' 
TABS,ioos:station:TABS:H:1,2006-08-25T07:30:00Z,27.8674,-96.5433,2.0,37.91206397,14.95647351,-99999.0,'11111222,11111222,99999999' 
TABS,ioos:station:TABS:H:1,2006-08-25T08:00:00Z,27.8674,-96.5433,2.0,47.73462153,14.08038707,-99999.0,'11111222,11111222,99999999' 
TABS,ioos:station:TABS:H:1,2006-08-25T08:30:00Z,27.8674,-96.5433,2.0,42.8041486,16.42400986,-99999.0,'11111222,11111222,99999999' 
TABS,ioos:station:TABS:H:1,2006-08-25T09:00:00Z,27.8674,-96.5433,2.0,52.32090303,20.53204812,-99999.0,'11111222,11111222,99999999' 
TABS,ioos:station:TABS:H:1,2006-08-25T09:30:00Z,27.8674,-96.5433,2.0,59.70661612,16.71196577,-99999.0,'11111222,11111222,99999999' 
TABS,ioos:station:TABS:H:1,2006-08-25T10:00:00Z,27.8674,-96.5433,2.0,60.75025414,20.24074356,-99999.0,'11111222,11111222,99999999' 
TABS,ioos:station:TABS:H:1,2006-08-25T10:30:00Z,27.8674,-96.5433,2.0,63.20447062,21.11759693,-99999.0,'11111222,11111222,99999999' 
TABS,ioos:station:TABS:H:1,2006-08-25T11:00:00Z,27.8674,-96.5433,2.0,65.31119988,19.94300128,-99999.0,'11111222,11111222,99999999' 
TABS,ioos:station:TABS:H:1,2006-08-25T11:30:00Z,27.8674,-96.5433,2.0,67.79554801,21.11593948,-99999.0,'11111222,11111222,99999999' 
TABS,ioos:station:TABS:H:1,2006-08-25T12:00:00Z,27.8674,-96.5433,2.0,73.06112043,16.71517275,-99999.0,'11111222,11111222,99999999' 
TABS,ioos:station:TABS:H:1,2006-08-25T12:30:00Z,27.8674,-96.5433,2.0,71.29908376,21.1147555,-99999.0,'11111222,11111222,99999999' 
TABS,ioos:station:TABS:H:1,2006-08-25T13:00:00Z,27.8674,-96.5433,2.0,78.69647789,17.60142324,-99999.0,'11111222,11111222,99999999' 
TABS,ioos:station:TABS:H:1,2006-08-25T13:30:00Z,27.8674,-96.5433,2.0,85.71781249,18.48159355,-99999.0,'11111222,11111222,99999999' 
TABS,ioos:station:TABS:H:1,2006-08-25T14:00:00Z,27.8674,-96.5433,2.0,68.474776,19.6505089,-99999.0,'11111222,11111222,99999999' 
TABS,ioos:station:TABS:H:1,2006-08-25T14:30:00Z,27.8674,-96.5433,2.0,90.30056456,15.25020983,-99999.0,'11111222,11111222,99999999' 
TABS,ioos:station:TABS:H:1,2006-08-25T15:00:00Z,27.8674,-96.5433,2.0,86.05357847,15.83755347,-99999.0,'11111222,11111222,99999999' 
TABS,ioos:station:TABS:H:1,2006-08-25T15:30:00Z,27.8674,-96.5433,2.0,89.58879429,16.72043062,-99999.0,'11111222,11111222,99999999' 
TABS,ioos:station:TABS:H:1,2006-08-25T16:00:00Z,27.8674,-96.5433,2.0,85.36552171,15.84179598,-99999.0,'11111222,11111222,99999999' 
TABS,ioos:station:TABS:H:1,2006-08-25T16:30:00Z,27.8674,-96.5433,2.0,84.32441586,14.66187573,-99999.0,'11111222,11111222,99999999' 
TABS,ioos:station:TABS:H:1,2006-08-25T17:00:00Z,27.8674,-96.5433,2.0,93.09405082,14.08052556,-99999.0,'11111222,11111222,99999999' 
TABS,ioos:station:TABS:H:1,2006-08-25T17:30:00Z,27.8674,-96.5433,2.0,92.03650525,13.78870915,-99999.0,'11111222,11111222,99999999' 
TABS,ioos:station:TABS:H:1,2006-08-25T18:00:00Z,27.8674,-96.5433,2.0,87.12405832,10.56330441,-99999.0,'11111222,11111222,99999999' 
TABS,ioos:station:TABS:H:1,2006-08-25T18:30:00Z,27.8674,-96.5433,2.0,77.28727473,15.54097809,-99999.0,'11111222,11111222,99999999' 
TABS,ioos:station:TABS:H:1,2006-08-25T19:00:00Z,27.8674,-96.5433,2.0,67.78091395,9.67869826,-99999.0,'11133222,11111222,99999999' 
TABS,ioos:station:TABS:H:1,2006-08-25T19:30:00Z,27.8674,-96.5433,2.0,69.18904462,7.627647082,-99999.0,'11133222,11111222,99999999' 
TABS,ioos:station:TABS:H:1,2006-08-25T20:00:00Z,27.8674,-96.5433,2.0,75.17876371,9.3821586,-99999.0,'11133222,11111222,99999999' 
TABS,ioos:station:TABS:H:1,2006-08-25T20:30:00Z,27.8674,-96.5433,2.0,88.50284102,8.803005169,-99999.0,'11133222,11111222,99999999' 
TABS,ioos:station:TABS:H:1,2006-08-25T21:00:00Z,27.8674,-96.5433,2.0,67.44280611,7.038465742,-99999.0,'11133222,11111222,99999999' 
TABS,ioos:station:TABS:H:1,2006-08-25T21:30:00Z,27.8674,-96.5433,2.0,87.82050891,7.625516376,-99999.0,'11133222,11111222,99999999' 
TABS,ioos:station:TABS:H:1,2006-08-25T22:00:00Z,27.8674,-96.5433,2.0,57.26485028,6.158027282,-99999.0,'11133222,11111222,99999999' 
TABS,ioos:station:TABS:H:1,2006-08-25T22:30:00Z,27.8674,-96.5433,2.0,105.8215655,3.814511764,-99999.0,'11133222,11111222,99999999' 
TABS,ioos:station:TABS:H:1,2006-08-25T23:00:00Z,27.8674,-96.5433,2.0,42.79947864,7.91836473,-99999.0,'11133222,11111222,99999999' 
TABS,ioos:station:TABS:H:1,2006-08-25T23:30:00Z,27.8674,-96.5433,2.0,65.31869782,9.38761418,-99999.0,'11133222,11111222,99999999' 
TABS,ioos:station:TABS:H:1,2006-08-26T00:00:00Z,27.8674,-96.5433,2.0,84.6473855,11.14861426,-99999.0,'11111222,11111222,99999999' 
TABS,ioos:station:TABS:H:1,2006-08-26T00:30:00Z,27.8674,-96.5433,2.0,69.91264506,11.73376751,-99999.0,'11111222,11111222,99999999' 
TABS,ioos:station:TABS:H:1,2006-08-26T01:00:00Z,27.8674,-96.5433,2.0,66.73988864,14.66168476,-99999.0,'11111222,11111222,99999999' 
TABS,ioos:station:TABS:H:1,2006-08-26T01:30:00Z,27.8674,-96.5433,2.0,61.44599078,13.7869576,-99999.0,'11111222,11111222,99999999' 
TABS,ioos:station:TABS:H:1,2006-08-26T02:00:00Z,27.8674,-96.5433,2.0,43.20786668,10.85232694,-99999.0,'11111222,11111222,99999999' 
TABS,ioos:station:TABS:H:1,2006-08-26T02:30:00Z,27.8674,-96.5433,2.0,48.48070459,7.920063131,-99999.0,'11133222,11111222,99999999' 
TABS,ioos:station:TABS:H:1,2006-08-26T03:00:00Z,27.8674,-96.5433,2.0,29.79954331,11.73121051,-99999.0,'11111222,11111222,99999999' 
TABS,ioos:station:TABS:H:1,2006-08-26T03:30:00Z,27.8674,-96.5433,2.0,49.14721484,14.0800071,-99999.0,'11111222,11111222,99999999' 
TABS,ioos:station:TABS:H:1,2006-08-26T04:00:00Z,27.8674,-96.5433,2.0,51.59366377,17.30422203,-99999.0,'11111222,11111222,99999999' 
TABS,ioos:station:TABS:H:1,2006-08-26T04:30:00Z,27.8674,-96.5433,2.0,68.8452024,16.12680998,-99999.0,'11111222,11111222,99999999' 
TABS,ioos:station:TABS:H:1,2006-08-26T05:00:00Z,27.8674,-96.5433,2.0,56.89132288,16.12873833,-99999.0,'11111222,11111222,99999999' 
TABS,ioos:station:TABS:H:1,2006-08-26T05:30:00Z,27.8674,-96.5433,2.0,47.76395614,14.37098466,-99999.0,'11111222,11111222,99999999' 
TABS,ioos:station:TABS:H:1,2006-08-26T06:00:00Z,27.8674,-96.5433,2.0,31.2031734,16.42627773,-99999.0,'11111222,11111222,99999999' 
TABS,ioos:station:TABS:H:1,2006-08-26T06:30:00Z,27.8674,-96.5433,2.0,28.76219584,21.11505861,-99999.0,'11111222,11111222,99999999' 
TABS,ioos:station:TABS:H:1,2006-08-26T07:00:00Z,27.8674,-96.5433,2.0,41.07911964,16.13150954,-99999.0,'11111222,11111222,99999999' 
TABS,ioos:station:TABS:H:1,2006-08-26T07:30:00Z,27.8674,-96.5433,2.0,47.05148455,19.35884811,-99999.0,'11111222,11111222,99999999' 
TABS,ioos:station:TABS:H:1,2006-08-26T08:00:00Z,27.8674,-96.5433,2.0,42.46655227,17.59587452,-99999.0,'11111222,11111222,99999999' 
TABS,ioos:station:TABS:H:1,2006-08-26T08:30:00Z,27.8674,-96.5433,2.0,40.0070247,24.04803526,-99999.0,'11111222,11111222,99999999' 
TABS,ioos:station:TABS:H:1,2006-08-26T09:00:00Z,27.8674,-96.5433,2.0,44.57072264,21.70171652,-99999.0,'11111222,11111222,99999999' 
TABS,ioos:station:TABS:H:1,2006-08-26T09:30:00Z,27.8674,-96.5433,2.0,49.16311505,26.1045475,-99999.0,'11111222,11111222,99999999' 
TABS,ioos:station:TABS:H:1,2006-08-26T10:00:00Z,27.8674,-96.5433,2.0,46.34950073,25.22242256,-99999.0,'11111222,11111222,99999999' 
TABS,ioos:station:TABS:H:1,2006-08-26T10:30:00Z,27.8674,-96.5433,2.0,45.98693545,22.58126879,-99999.0,'11111222,11111222,99999999' 
TABS,ioos:station:TABS:H:1,2006-08-26T11:00:00Z,27.8674,-96.5433,2.0,41.06274802,23.17000863,-99999.0,'11111222,11111222,99999999' 
TABS,ioos:station:TABS:H:1,2006-08-26T11:30:00Z,27.8674,-96.5433,2.0,55.48009527,23.16948424,-99999.0,'11111222,11111222,99999999' 
TABS,ioos:station:TABS:H:1,2006-08-26T12:00:00Z,27.8674,-96.5433,2.0,32.97464874,22.87484645,-99999.0,'11111222,11111222,99999999' 
TABS,ioos:station:TABS:H:1,2006-08-26T12:30:00Z,27.8674,-96.5433,2.0,36.13745899,18.7715343,-99999.0,'11111222,11111222,99999999' 
TABS,ioos:station:TABS:H:1,2006-08-26T13:00:00Z,27.8674,-96.5433,2.0,31.21633945,20.24045948,-99999.0,'11111222,11111222,99999999' 
TABS,ioos:station:TABS:H:1,2006-08-26T13:30:00Z,27.8674,-96.5433,2.0,44.2325703,23.75384811,-99999.0,'11111222,11111222,99999999' 
TABS,ioos:station:TABS:H:1,2006-08-26T14:00:00Z,27.8674,-96.5433,2.0,32.26098665,13.78858949,-99999.0,'11111222,11111222,99999999' 
TABS,ioos:station:TABS:H:1,2006-08-26T14:30:00Z,27.8674,-96.5433,2.0,44.24035217,23.46386584,-99999.0,'11111222,11111222,99999999' 
TABS,ioos:station:TABS:H:1,2006-08-26T15:00:00Z,27.8674,-96.5433,2.0,37.89044711,19.6531168,-99999.0,'11111222,11111222,99999999' 
TABS,ioos:station:TABS:H:1,2006-08-26T15:30:00Z,27.8674,-96.5433,2.0,38.59891873,23.46668277,-99999.0,'11111222,11111222,99999999' 
TABS,ioos:station:TABS:H:1,2006-08-26T16:00:00Z,27.8674,-96.5433,2.0,42.81634877,18.18585164,-99999.0,'11111222,11111222,99999999' 
TABS,ioos:station:TABS:H:1,2006-08-26T16:30:00Z,27.8674,-96.5433,2.0,47.37595393,16.71623163,-99999.0,'11111222,11111222,99999999' 
TABS,ioos:station:TABS:H:1,2006-08-26T17:00:00Z,27.8674,-96.5433,2.0,41.07053993,20.53315611,-99999.0,'11111222,11111222,99999999' 
TABS,ioos:station:TABS:H:1,2006-08-26T17:30:00Z,27.8674,-96.5433,2.0,52.30827074,17.00975015,-99999.0,'11111222,11111222,99999999' 
TABS,ioos:station:TABS:H:1,2006-08-26T18:00:00Z,27.8674,-96.5433,2.0,36.14341111,16.71734429,-99999.0,'11111222,11111222,99999999' 
TABS,ioos:station:TABS:H:1,2006-08-26T18:30:00Z,27.8674,-96.5433,2.0,33.68186165,19.05949894,-99999.0,'11111222,11111222,99999999' 
TABS,ioos:station:TABS:H:1,2006-08-26T19:00:00Z,27.8674,-96.5433,2.0,41.40654744,23.46551512,-99999.0,'11111222,11111222,99999999' 
TABS,ioos:station:TABS:H:1,2006-08-26T19:30:00Z,27.8674,-96.5433,2.0,45.62970237,19.94868667,-99999.0,'11111222,11111222,99999999' 
TABS,ioos:station:TABS:H:1,2006-08-26T20:00:00Z,27.8674,-96.5433,2.0,44.94173957,20.82430551,-99999.0,'11111222,11111222,99999999' 
TABS,ioos:station:TABS:H:1,2006-08-26T20:30:00Z,27.8674,-96.5433,2.0,50.21119952,26.39224318,-99999.0,'11111222,11111222,99999999' 
TABS,ioos:station:TABS:H:1,2006-08-26T21:00:00Z,27.8674,-96.5433,2.0,44.58036442,23.16543978,-99999.0,'11111222,11111222,99999999' 
TABS,ioos:station:TABS:H:1,2006-08-26T21:30:00Z,27.8674,-96.5433,2.0,54.08304285,24.05332617,-99999.0,'11111222,11111222,99999999' 
TABS,ioos:station:TABS:H:1,2006-08-26T22:00:00Z,27.8674,-96.5433,2.0,44.23443329,24.34078881,-99999.0,'11111222,11111222,99999999' 
TABS,ioos:station:TABS:H:1,2006-08-26T22:30:00Z,27.8674,-96.5433,2.0,52.66572158,26.3988674,-99999.0,'11111222,11111222,99999999' 
TABS,ioos:station:TABS:H:1,2006-08-26T23:00:00Z,27.8674,-96.5433,2.0,52.66131619,24.92883471,-99999.0,'11111222,11111222,99999999' 
TABS,ioos:station:TABS:H:1,2006-08-26T23:30:00Z,27.8674,-96.5433,2.0,62.862676,25.51928095,-99999.0,'11111222,11111222,99999999' 
TABS,ioos:station:TABS:H:1,2006-08-27T00:00:00Z,27.8674,-96.5433,2.0,53.02569262,25.22204195,-99999.0,'11111222,11111222,99999999' 
TABS,ioos:station:TABS:H:1,2006-08-27T00:30:00Z,27.8674,-96.5433,2.0,52.32429274,23.46232086,-99999.0,'11111222,11111222,99999999' 
TABS,ioos:station:TABS:H:1,2006-08-27T01:00:00Z,27.8674,-96.5433,2.0,51.97059387,17.88766335,-99999.0,'11111222,11111222,99999999' 
TABS,ioos:station:TABS:H:1,2006-08-27T01:30:00Z,27.8674,-96.5433,2.0,39.64652528,22.58451239,-99999.0,'11111222,11111222,99999999' 
TABS,ioos:station:TABS:H:1,2006-08-27T02:00:00Z,27.8674,-96.5433,2.0,52.3141156,19.94002257,-99999.0,'11111222,11111222,99999999' 
TABS,ioos:station:TABS:H:1,2006-08-27T02:30:00Z,27.8674,-96.5433,2.0,35.07751177,21.99476301,-99999.0,'11111222,11111222,99999999' 
TABS,ioos:station:TABS:H:1,2006-08-27T03:00:00Z,27.8674,-96.5433,2.0,52.67420708,15.83250138,-99999.0,'11111222,11111222,99999999' 
TABS,ioos:station:TABS:H:1,2006-08-27T03:30:00Z,27.8674,-96.5433,2.0,37.19939983,20.52633918,-99999.0,'11111222,11111222,99999999' 
TABS,ioos:station:TABS:H:1,2006-08-27T04:00:00Z,27.8674,-96.5433,2.0,38.96106448,22.58303788,-99999.0,'11111222,11111222,99999999' 
TABS,ioos:station:TABS:H:1,2006-08-27T04:30:00Z,27.8674,-96.5433,2.0,29.46190828,26.10590929,-99999.0,'11111222,11111222,99999999' 
TABS,ioos:station:TABS:H:1,2006-08-27T05:00:00Z,27.8674,-96.5433,2.0,29.11451347,21.41589363,-99999.0,'11111222,11111222,99999999' 
TABS,ioos:station:TABS:H:1,2006-08-27T05:30:00Z,27.8674,-96.5433,2.0,32.63363699,17.59808228,-99999.0,'11111222,11111222,99999999' 
TABS,ioos:station:TABS:H:1,2006-08-27T06:00:00Z,27.8674,-96.5433,2.0,37.19399182,24.0523845,-99999.0,'11111222,11111222,99999999' 
TABS,ioos:station:TABS:H:1,2006-08-27T06:30:00Z,27.8674,-96.5433,2.0,47.38942599,24.93304835,-99999.0,'11111222,11111222,99999999' 
TABS,ioos:station:TABS:H:1,2006-08-27T07:00:00Z,27.8674,-96.5433,2.0,29.4750945,23.16870519,-99999.0,'11111222,11111222,99999999' 
TABS,ioos:station:TABS:H:1,2006-08-27T07:30:00Z,27.8674,-96.5433,2.0,38.25318515,25.51943573,-99999.0,'11111222,11111222,99999999' 
TABS,ioos:station:TABS:H:1,2006-08-27T08:00:00Z,27.8674,-96.5433,2.0,35.45116112,22.29283517,-99999.0,'11111222,11111222,99999999' 
TABS,ioos:station:TABS:H:1,2006-08-27T08:30:00Z,27.8674,-96.5433,2.0,36.14892928,28.44625283,-99999.0,'11111222,11111222,99999999' 
TABS,ioos:station:TABS:H:1,2006-08-27T09:00:00Z,27.8674,-96.5433,2.0,41.05632578,29.91782245,-99999.0,'11111222,11111222,99999999' 
TABS,ioos:station:TABS:H:1,2006-08-27T09:30:00Z,27.8674,-96.5433,2.0,39.31289403,29.3266517,-99999.0,'11111222,11111222,99999999' 
TABS,ioos:station:TABS:H:1,2006-08-27T10:00:00Z,27.8674,-96.5433,2.0,44.58382979,21.41175845,-99999.0,'11111222,11111222,99999999' 
TABS,ioos:station:TABS:H:1,2006-08-27T10:30:00Z,27.8674,-96.5433,2.0,47.39121325,26.10082374,-99999.0,'11111222,11111222,99999999' 
TABS,ioos:station:TABS:H:1,2006-08-27T11:00:00Z,27.8674,-96.5433,2.0,47.043455,28.16075638,-99999.0,'11111222,11111222,99999999' 
TABS,ioos:station:TABS:H:1,2006-08-27T11:30:00Z,27.8674,-96.5433,2.0,52.66971229,24.63679565,-99999.0,'11111222,11111222,99999999' 
TABS,ioos:station:TABS:H:1,2006-08-27T12:00:00Z,27.8674,-96.5433,2.0,54.77712425,20.52848022,-99999.0,'11111222,11111222,99999999' 
TABS,ioos:station:TABS:H:1,2006-08-27T12:30:00Z,27.8674,-96.5433,2.0,48.80140985,21.1182433,-99999.0,'11111222,11111222,99999999' 
TABS,ioos:station:TABS:H:1,2006-08-27T13:00:00Z,27.8674,-96.5433,2.0,62.14948991,25.51548549,-99999.0,'11111222,11111222,99999999' 
TABS,ioos:station:TABS:H:1,2006-08-27T13:30:00Z,27.8674,-96.5433,2.0,46.69524337,19.36198595,-99999.0,'11111222,11111222,99999999' 
TABS,ioos:station:TABS:H:1,2006-08-27T14:00:00Z,27.8674,-96.5433,2.0,62.49708573,19.94392639,-99999.0,'11111222,11111222,99999999' 
TABS,ioos:station:TABS:H:1,2006-08-27T14:30:00Z,27.8674,-96.5433,2.0,55.48588992,20.82559963,-99999.0,'11111222,11111222,99999999' 
TABS,ioos:station:TABS:H:1,2006-08-27T15:00:00Z,27.8674,-96.5433,2.0,70.94737541,23.46546398,-99999.0,'11111222,11111222,99999999' 
TABS,ioos:station:TABS:H:1,2006-08-27T15:30:00Z,27.8674,-96.5433,2.0,60.40058201,20.52905502,-99999.0,'11111222,11111222,99999999' 
TABS,ioos:station:TABS:H:1,2006-08-27T16:00:00Z,27.8674,-96.5433,2.0,57.2329759,23.76089224,-99999.0,'11111222,11111222,99999999' 
TABS,ioos:station:TABS:H:1,2006-08-27T16:30:00Z,27.8674,-96.5433,2.0,49.85882844,22.29032301,-99999.0,'11111222,11111222,99999999' 
TABS,ioos:station:TABS:H:1,2006-08-27T17:00:00Z,27.8674,-96.5433,2.0,55.82519158,22.28865182,-99999.0,'11111222,11111222,99999999' 
TABS,ioos:station:TABS:H:1,2006-08-27T17:30:00Z,27.8674,-96.5433,2.0,55.14363818,21.1190388,-99999.0,'11111222,11111222,99999999' 
TABS,ioos:station:TABS:H:1,2006-08-27T18:00:00Z,27.8674,-96.5433,2.0,60.04691023,18.76657934,-99999.0,'11111222,11111222,99999999' 